カタログに戻る

SPARK 1

運用中科学SSO
NORAD 41900·PAYLOAD·🇨🇳 China

打ち上げ Dec 21, 2016 から Jiuquan Satellite Launch Center

Loading…

次のパス (今後24時間)

TLE

最新Source: Space-Track

元期: Sep 14, 2026, 10:54 UTC

1 41900U 16081C   26257.45435308  .00000375  00000-0  88665-4 0  9996
2 41900  98.5560 254.7088 0024598  46.7844 313.5403 14.59864911517295

AllMySatでSPARK 1をリアルタイム追跡

Download on the App Store